Dickinson, ND

1:58 PM MDT on April 27, 2017 (GMT -0600)
Dickinson Municipal

Weather History for KDIK - October, 2012

Change the Weather History Date:

Tuesday, October 9, 2012

  Actual Average Record
Temperature  
Mean Temperature 35 °F 47 °F  
Max Temperature 45 °F 60 °F 90 °F (1910)
Min Temperature 24 °F 34 °F 6 °F (1897)
Degree Days  
Heating Degree Days 30 18  
Month to date heating degree days 215 149  
Since 1 July heating degree days 439 503  
Cooling Degree Days 0 0  
Month to date cooling degree days 0 0  
Year to date cooling degree days 591 418  
Moisture  
Dew Point 24 °F    
Average Humidity 62    
Maximum Humidity 85    
Minimum Humidity 39    
Precipitation  
Precipitation T in 0.04 in 1.37 in (1982)
Month to date precipitation 0.61 0.42  
Year to date precipitation 9.20 14.18  
Sea Level Pressure  
Sea Level Pressure 30.04 in    
Wind  
Wind Speed 12 mph (NW)    
Max Wind Speed 28 mph    
Max Gust Speed 35 mph    
Visibility 10 miles    
Events      
T = Trace of Precipitation, MM = Missing Value Source: NWS Daily Summary

Daily Weather History Graph

Daily Weather History Graph

Search for Another Location

Airport or City:

Trip Planner

Search our weather history database for the weather conditions in past years. The results will help you decide how hot, cold, wet, or windy it might be!

Date:

Astronomy

Oct. 09, 2012 Rise Set
Actual Time 7:01 AM MDT 6:14 PM MDT
Civil Twilight 6:31 AM MDT 6:44 PM MDT
Nautical Twilight 5:55 AM MDT 7:19 PM MDT
Astronomical Twilight 5:20 AM MDT 7:54 PM MDT
Moon 12:18 AM MDT (10/9) 3:02 PM MDT (10/9)
Length of Visible Light 12h 13m
Length of Day
11h 12m
Last Quarter, 36% of the Moon is Illuminated
Oct 9
Last Quarter
Oct 15
New
Oct 21
First Quarter
Oct 29
Full
Nov 6
Last Quarter

Hourly Weather History & Observations

Time (MDT) Temp. Windchill Dew Point Humidity Pressure Visibility Wind Dir Wind Speed Gust Speed Precip Events Conditions
12:56 AM 36.0 °F 27.5 °F 25.0 °F 64% 29.91 in 10.0 mi WNW 12.7 mph - N/A   Clear
1:56 AM 34.0 °F 24.6 °F 25.0 °F 70% 29.92 in 10.0 mi WNW 13.8 mph - N/A   Clear
2:56 AM 33.1 °F 23.9 °F 24.1 °F 70% 29.92 in 10.0 mi WNW 12.7 mph - N/A   Clear
3:56 AM 32.0 °F 22.1 °F 25.0 °F 75% 29.94 in 10.0 mi WNW 13.8 mph - N/A   Clear
4:56 AM 30.9 °F 20.2 °F 26.1 °F 82% 29.96 in 10.0 mi NW 15.0 mph - N/A   Clear
5:56 AM 28.0 °F 18.1 °F 25.0 °F 88% 30.00 in 10.0 mi NW 11.5 mph - N/A   Clear
6:30 AM 30.2 °F 21.3 °F 26.6 °F 86% 29.96 in 10.0 mi NW 10.4 mph - N/A   Mostly Cloudy
6:56 AM 30.9 °F 21.7 °F 27.0 °F 85% 30.02 in 10.0 mi NW 11.5 mph - N/A   Overcast
7:56 AM 32.0 °F 21.2 °F 27.0 °F 82% 30.04 in 10.0 mi NW 16.1 mph 23.0 mph N/A   Overcast
8:56 AM 33.1 °F 23.0 °F 26.1 °F 75% 30.06 in 10.0 mi NNW 15.0 mph 24.2 mph N/A   Overcast
9:56 AM 37.0 °F 27.4 °F 26.1 °F 65% 30.07 in 10.0 mi NW 17.3 mph 24.2 mph N/A   Scattered Clouds
10:08 AM 37.4 °F 27.5 °F 26.6 °F 65% 30.02 in 10.0 mi NW 18.4 mph 25.3 mph N/A   Mostly Cloudy
10:56 AM 39.9 °F 30.5 °F 27.0 °F 60% 30.08 in 10.0 mi NW 19.6 mph 26.5 mph N/A   Mostly Cloudy
11:15 AM 41.0 °F 31.1 °F 26.6 °F 57% 30.02 in 10.0 mi NW 23.0 mph 29.9 mph N/A   Scattered Clouds
11:56 AM 42.1 °F 32.8 °F 25.0 °F 51% 30.07 in 10.0 mi NW 21.9 mph 31.1 mph N/A   Mostly Cloudy
12:56 PM 39.9 °F 30.2 °F 24.1 °F 53% 30.08 in 10.0 mi NW 20.7 mph 29.9 mph N/A   Mostly Cloudy
1:56 PM 39.0 °F 30.3 °F 24.1 °F 55% 30.09 in 10.0 mi NW 16.1 mph 24.2 mph N/A   Scattered Clouds
2:56 PM 39.9 °F 31.8 °F 21.9 °F 49% 30.09 in 10.0 mi NW 15.0 mph - 0.00 in   Overcast
3:56 PM 42.1 °F 34.5 °F 21.9 °F 45% 30.09 in 10.0 mi WNW 15.0 mph - N/A   Overcast
4:56 PM 43.0 °F 36.0 °F 19.9 °F 40% 30.09 in 10.0 mi NW 13.8 mph - N/A   Overcast
5:56 PM 39.9 °F 33.4 °F 19.9 °F 45% 30.10 in 10.0 mi NW 10.4 mph - N/A   Clear
6:56 PM 33.1 °F 26.1 °F 19.0 °F 56% 30.11 in 10.0 mi NW 8.1 mph - N/A   Clear
7:56 PM 30.0 °F 26.5 °F 19.0 °F 64% 30.11 in 10.0 mi West 3.5 mph - N/A   Clear
8:56 PM 30.0 °F 24.1 °F 21.0 °F 69% 30.12 in 10.0 mi West 5.8 mph - N/A   Overcast
9:56 PM 33.1 °F 30.0 °F 21.9 °F 64% 30.10 in 10.0 mi WSW 3.5 mph - N/A   Overcast
10:56 PM 28.9 °F 22.8 °F 19.0 °F 67% 30.11 in 10.0 mi WNW 5.8 mph - N/A   Clear
11:56 PM 27.0 °F 23.0 °F 18.0 °F 69% 30.09 in 10.0 mi West 3.5 mph - N/A   Mostly Cloudy